Location: Pensacola
(30.4142°N, 87.2155°W)
Time: 10:33:01
(UTC-05:00)

NANOSAT C BR1 - Pass Details

Date: 11 August 2024
Orbit: 546 x 551 km, 98.1° (Epoch: 07 September)

Event Time Altitude Azimuth Distance (km) Brightness Sun altitude
Rises 04:11:12 0° 30° (NNE) 2,749 ? -24.3°
Reaches altitude 10° 04:13:44 10° 45° (NE) 1,850 ? -23.9°
Maximum altitude 04:16:51 22° 97° (E) 1,256 ? -23.3°
Drops below altitude 10° 04:19:57 10° 148° (SSE) 1,840 ? -22.8°
Enters shadow 04:20:06 - 150° (SSE) 1,889 ? -22.7°
